Latest Weather Observations for Toolara

IDQ60801

Issued at 10:35 am EST Sunday 23 November 2014 (issued every 30 minutes, with the page automatically refreshed every 10 minutes)

About weather observations | Map of weather stations | Latest weather observations for QLD | Other Formats
Station Details ID: 040555 Name: TOOLARA (KELLY) Lat: -25.97 Lon: 152.86 Height: 143.0 m
Data from the previous 72 hours. | See also: Recent months at Toolara
Date/Time
EST
Temp
°C
App
Temp
°C
Dew
Point
Rel
Hum
%
Delta-T
°C
Wind Press
QNH
hPa
Press
MSL
hPa
Rain
since 9 am
mm
Dir
 
Spd
km/h
Gust
km/h
Spd
kts
Gust
kts
23/10:30am 28.4 30.0 18.2 54 6.5 - 7 11 4 6 - - -
23/10:00am 28.5 30.7 19.1 56 6.1 - 6 6 3 3 - - -
23/09:30am 29.3 - 20.7 59 5.7 - - - - - - - -
23/09:00am 28.3 - 20.8 63 5.0 - - - - - - - 0.0
23/08:30am 28.5 - 21.3 65 4.8 - - - - - - - -
23/08:00am 27.6 - 22.1 72 3.7 - - - - - - - -
23/07:30am 25.4 - 20.9 76 3.0 - - - - - - - -
23/07:00am 24.6 - 21.5 83 2.1 - - - - - - - -
23/06:30am 22.8 - 21.8 94 0.7 - - - - - - - -
23/06:00am 21.9 - 21.7 99 0.1 - - - - - - - -
23/05:30am 21.5 - 21.5 100 0.0 - - - - - - - -
23/05:00am 21.3 - 21.3 100 0.0 - - - - - - - -
23/04:30am 21.2 - 21.2 100 0.0 - - - - - - - -
23/04:00am 21.2 - 21.2 100 0.0 - - - - - - - -
23/03:30am 21.2 - 21.2 100 0.0 - - - - - - - -
23/03:00am 21.3 - 21.1 99 0.1 - - - - - - - 0.0
23/02:30am 21.5 - 21.3 99 0.1 - - - - - - - -
23/02:00am 21.7 - 21.4 98 0.2 - - - - - - - -
23/01:30am 22.0 - 21.2 95 0.5 - - - - - - - -
23/01:00am 22.3 - 21.3 94 0.7 - - - - - - - -
23/12:30am 22.4 - 21.4 94 0.7 - - - - - - - -
23/12:00am 22.3 - 21.5 95 0.5 - - - - - - - -
 
Date/Time
EST
Temp
°C
App
Temp
°C
Dew
Point
Rel
Hum
%
Delta-T
°C
Wind Press
QNH
hPa
Press
MSL
hPa
Rain
since 9 am
mm
Dir
 
Spd
km/h
Gust
km/h
Spd
kts
Gust
kts
22/11:30pm 22.4 - 21.4 94 0.7 - - - - - - - -
22/11:00pm 22.4 - 21.2 93 0.8 - - - - - - - -
22/10:30pm 22.5 - 21.1 92 0.9 - - - - - - - -
22/10:00pm 22.6 - 20.9 90 1.1 - - - - - - - -
22/09:30pm 22.9 - 20.8 88 1.4 - - - - - - - -
22/09:00pm 23.2 - 20.7 86 1.6 - - - - - - - 0.0
22/08:30pm 23.5 - 20.6 84 1.9 - - - - - - - -
22/08:00pm 23.8 - 20.5 82 2.2 - - - - - - - -
22/07:30pm 24.2 - 20.5 80 2.4 - - - - - - - -
22/07:00pm 24.6 - 20.3 77 2.8 - - - - - - - -
22/06:30pm 25.2 - 20.7 76 3.0 - - - - - - - -
22/06:00pm 25.8 - 21.0 75 3.2 - - - - - - - -
22/05:30pm 26.6 - 21.1 72 3.7 - - - - - - - -
22/05:00pm 27.3 - 21.1 69 4.1 - - - - - - - -
22/04:30pm 28.0 - 21.5 67 4.4 - - - - - - - -
22/04:00pm 28.5 - 21.5 66 4.7 - - - - - - - -
22/03:30pm 29.2 - 21.7 64 5.1 - - - - - - - -
22/03:00pm 30.1 - 22.3 63 5.3 - - - - - - - 0.0
22/02:30pm 30.7 - 22.0 59 5.9 - - - - - - - -
22/02:00pm 31.3 - 22.3 58 6.2 - - - - - - - -
22/01:30pm 32.3 - 22.7 57 6.6 - - - - - - - -
22/01:00pm 30.2 - 21.3 59 6.0 - - - - - - - -
22/12:30pm 31.9 - 22.6 58 6.4 - - - - - - - -
22/12:00pm 30.6 - 22.2 61 5.7 - - - - - - - -
22/11:30am 31.3 - 23.1 61 5.7 - - - - - - - -
22/11:00am 29.1 - 22.1 66 4.8 - - - - - - - -
22/10:30am 28.7 - 22.2 68 4.4 - - - - - - - -
22/10:00am 29.3 - 22.5 67 4.6 - - - - - - - -
22/09:30am 28.0 - 22.7 73 3.6 - - - - - - - -
22/09:00am 26.7 - 22.5 78 2.8 - - - - - - - 0.0
22/08:30am 27.2 - 24.5 85 1.9 - - - - - - - -
22/08:00am 24.6 - 22.8 90 1.2 - - - - - - - -
22/07:30am 24.7 - 23.3 92 1.0 - - - - - - - -
22/07:00am 24.0 - 23.5 97 0.3 - - - - - - - -
22/06:30am 23.6 - 23.6 100 0.0 - - - - - - - -
22/06:00am 22.7 - 22.7 100 0.0 - - - - - - - -
22/05:30am 22.3 - 22.3 100 0.0 - - - - - - - -
22/05:00am 22.2 - 22.2 100 0.0 - - - - - - - -
22/04:30am 22.4 - 22.4 100 0.0 - - - - - - - -
22/04:00am 22.5 - 22.5 100 0.0 - - - - - - - -
22/03:30am 22.5 - 22.5 100 0.0 - - - - - - - -
22/03:00am 22.4 - 22.4 100 0.0 - - - - - - - 0.0
22/02:30am 22.4 - 22.4 100 0.0 - - - - - - - -
22/02:00am 22.4 - 22.4 100 0.0 - - - - - - - -
22/01:30am 22.4 - 22.4 100 0.0 - - - - - - - -
22/01:00am 22.6 - 22.4 99 0.1 - - - - - - - -
22/12:30am 22.4 - 22.2 99 0.1 - - - - - - - -
22/12:00am 22.6 - 22.1 97 0.3 - - - - - - - -
 
Date/Time
EST
Temp
°C
App
Temp
°C
Dew
Point
Rel
Hum
%
Delta-T
°C
Wind Press
QNH
hPa
Press
MSL
hPa
Rain
since 9 am
mm
Dir
 
Spd
km/h
Gust
km/h
Spd
kts
Gust
kts
21/11:30pm 22.7 - 21.7 94 0.7 - - - - - - - -
21/11:00pm 22.9 - 21.5 92 0.9 - - - - - - - -
21/10:30pm 23.0 - 21.4 91 1.1 - - - - - - - -
21/10:00pm 23.0 - 21.1 89 1.3 - - - - - - - -
21/09:30pm 23.2 - 20.9 87 1.5 - - - - - - - -
21/09:00pm 23.3 - 20.6 85 1.8 - - - - - - - 0.0
21/08:30pm 23.4 - 20.3 83 2.0 - - - - - - - -
21/08:00pm 23.7 - 20.0 80 2.4 - - - - - - - -
21/07:30pm 24.1 - 20.0 78 2.7 - - - - - - - -
21/07:00pm 24.5 - 20.2 77 2.8 - - - - - - - -
21/06:30pm 25.1 - 20.1 74 3.3 - - - - - - - -
21/06:00pm 25.8 - 20.1 71 3.7 - - - - - - - -
21/05:30pm 26.5 - 19.9 67 4.3 - - - - - - - -
21/05:00pm 27.2 - 19.8 64 4.8 - - - - - - - -
21/04:30pm 28.0 - 20.0 61 5.3 - - - - - - - -
21/04:00pm 28.3 - 20.1 61 5.4 - - - - - - - -
21/03:30pm 29.6 - 20.7 58 5.9 - - - - - - - -
21/03:00pm 29.7 - 21.1 60 5.8 - - - - - - - 0.0
21/02:30pm 30.3 - 21.7 60 5.8 - - - - - - - -
21/02:00pm 30.0 - 21.1 59 6.0 - - - - - - - -
21/01:30pm 29.9 - 20.7 57 6.1 - - - - - - - -
21/01:00pm 29.8 - 20.6 57 6.1 - - - - - - - -
21/12:30pm 30.0 - 20.8 57 6.1 - - - - - - - -
21/12:00pm 31.0 - 22.0 58 6.1 - - - - - - - -
21/11:30am 31.0 - 22.9 62 5.6 - - - - - - - -
21/11:00am 29.7 - 21.6 61 5.5 - - - - - - - -
21/10:30am 28.9 - 22.2 67 4.6 - - - - - - - -
21/10:00am 29.1 - 23.1 70 4.1 - - - - - - - -
21/09:30am 26.8 - 21.3 72 3.7 - - - - - - - -
21/09:00am 28.4 - 22.6 71 4.0 - - - - - - - 0.0
21/08:30am 27.0 - 23.5 81 2.4 - - - - - - - -
21/08:00am 26.6 - 24.8 90 1.3 - - - - - - - -
21/07:30am 23.4 - 23.4 100 0.0 - - - - - - - -
21/07:00am 23.6 - 23.6 100 0.0 - - - - - - - -
21/06:30am 22.8 - 22.8 100 0.0 - - - - - - - -
21/06:00am 22.2 - 22.2 100 0.0 - - - - - - - -
21/05:30am 21.3 - 21.3 100 0.0 - - - - - - - -
21/05:00am 21.1 - 21.1 100 0.0 - - - - - - - -
21/04:30am 21.2 - 21.2 100 0.0 - - - - - - - -
21/04:00am 21.3 - 21.3 100 0.0 - - - - - - - -
21/03:30am 21.2 - 21.2 100 0.0 - - - - - - - -
21/03:00am 21.4 - 21.4 100 0.0 - - - - - - - 0.0
21/02:30am 21.4 - 21.4 100 0.0 - - - - - - - -
21/02:00am 21.3 - 21.3 100 0.0 - - - - - - - -
21/01:30am 21.2 - 21.2 100 0.0 - - - - - - - -
21/01:00am 21.3 - 21.3 100 0.0 - - - - - - - -
21/12:30am 21.5 - 21.5 100 0.0 - - - - - - - -
21/12:00am 21.5 - 21.5 100 0.0 - - - - - - - -
 
Date/Time
EST
Temp
°C
App
Temp
°C
Dew
Point
Rel
Hum
%
Delta-T
°C
Wind Press
QNH
hPa
Press
MSL
hPa
Rain
since 9 am
mm
Dir
 
Spd
km/h
Gust
km/h
Spd
kts
Gust
kts
20/11:30pm 21.6 - 21.6 100 0.0 - - - - - - - -
20/11:00pm 21.6 - 21.6 100 0.0 - - - - - - - -
20/10:30pm 21.8 - 21.8 100 0.0 - - - - - - - -
20/10:00pm 21.9 - 21.9 100 0.0 - - - - - - - -
20/09:30pm 22.1 - 21.9 99 0.1 - - - - - - - -
20/09:00pm 22.2 - 22.0 99 0.1 - - - - - - - 0.0
20/08:30pm 22.4 - 21.9 97 0.3 - - - - - - - -
20/08:00pm 22.3 - 21.5 95 0.5 - - - - - - - -
20/07:30pm 22.5 - 21.1 92 0.9 - - - - - - - -
20/07:00pm 22.7 - 20.8 89 1.2 - - - - - - - -
20/06:30pm 23.0 - 20.7 87 1.5 - - - - - - - -
20/06:00pm 23.4 - 20.3 83 2.0 - - - - - - - -
20/05:30pm 23.8 - 19.7 78 2.6 - - - - - - - -
20/05:00pm 24.9 - 20.8 78 2.7 - - - - - - - -
20/04:30pm 25.0 - 20.3 75 3.1 - - - - - - - -
20/04:00pm 24.7 - 19.3 72 3.5 - - - - - - - -
20/03:30pm 25.4 - 19.8 71 3.6 - - - - - - - -
20/03:00pm 26.7 - 21.0 71 3.8 - - - - - - - 0.0
20/02:30pm 27.9 - 21.9 70 4.0 - - - - - - - -
20/02:00pm 26.0 - 19.6 68 4.2 - - - - - - - -
20/01:30pm 26.5 - 20.3 68 4.1 - - - - - - - -
20/01:00pm 28.5 - 22.0 68 4.4 - - - - - - - -
20/12:30pm 29.1 - 22.6 68 4.4 - - - - - - - -
20/12:00pm 27.8 - 21.1 67 4.5 - - - - - - - -
20/11:30am 26.9 - 22.1 75 3.2 - - - - - - - -
20/11:00am 27.6 - 21.6 70 4.0 - - - - - - - -

Other Formats:

Comma delimited format used in spreadsheet applications
http://www.bom.gov.au/fwo/IDQ60801/IDQ60801.94558.axf

JavaScript Object Notation format (JSON) in row-major order
http://www.bom.gov.au/fwo/IDQ60801/IDQ60801.94558.json